| time (UTC) | temp C | wind direction | speed KPH | gust KPH | rain 1hr cm | rain 24hr cm | rain mn cm | humidity % | barometer mb |
| 20260831014317 | 18 | 0.0 | 0.0 | 0.00 | 0.00 | 0.00 | 70 | 1013.0 | |
| 20260831013317 | 18 | 0.0 | 0.0 | 0.00 | 0.00 | 0.00 | 69 | 1012.9 | |
| 20260831012318 | 19 | 0.0 | 0.0 | 0.00 | 0.00 | 0.00 | 68 | 1012.9 | |
| 20260831011317 | 19 | 0.0 | 0.0 | 0.00 | 0.00 | 0.00 | 67 | 1012.9 | |
| 20260831010336 | 20 | 0.0 | 0.0 | 0.00 | 0.00 | 0.00 | 66 | 1012.9 | |
| 20260831010219 | 20 | 0.0 | 0.0 | 0.00 | 0.00 | 0.00 | 65 | 1012.8 | |
| 20260831005117 | 21 | 0.0 | 0.0 | 0.00 | 0.00 | 0.00 | 63 | 1012.8 | |
| 20260831004117 | 20 | 0.0 | 0.0 | 0.00 | 0.00 | 0.00 | 63 | 1012.7 | |
| 20260831003117 | 21 | 0.0 | 1.6 | 0.00 | 0.00 | 0.00 | 61 | 1012.7 | |
| 20260831002136 | 21 | 0.0 | 0.0 | 0.00 | 0.00 | 0.00 | 60 | 1012.7 | |
| 20260831001116 | 22 | 0.0 | 0.0 | 0.00 | 0.00 | 0.00 | 60 | 1012.7 | |
| 20260831000116 | 22 | 0.0 | 0.0 | 0.00 | 0.00 | 0.00 | 58 | 1012.7 | |
| 20260830235117 | 22 | 0.0 | 0.0 | 0.00 | 0.00 | 0.00 | 58 | 1012.6 | |
| 20260830234116 | 22 | 0.0 | 0.0 | 0.00 | 0.00 | 0.00 | 56 | 1012.6 | |
| 20260830233117 | 22 | 0.0 | 0.0 | 0.00 | 0.00 | 0.00 | 55 | 1012.7 | |
| 20260830232156 | 23 | 0.0 | 0.0 | 0.00 | 0.00 | 0.00 | 54 | 1012.7 | |
| 20260830231117 | 23 | 0.0 | 0.0 | 0.00 | 0.00 | 0.00 | 54 | 1012.7 | |
| 20260830230116 | 23 | 0.0 | 1.6 | 0.00 | 0.00 | 0.00 | 53 | 1012.8 | |
| 20260830225137 | 23 | 0.0 | 0.0 | 0.00 | 0.00 | 0.00 | 52 | 1012.8 | |
| 20260830224137 | 23 | 248 | 6.4 | 16.1 | 0.00 | 0.00 | 0.00 | 51 | 1012.7 |
| 20260830223116 | 24 | 225 | 4.8 | 16.1 | 0.00 | 0.00 | 0.00 | 49 | 1012.9 |
| 20260830222116 | 25 | 0.0 | 0.0 | 0.00 | 0.00 | 0.00 | 49 | 1012.9 | |
| 20260830221116 | 25 | 0.0 | 0.0 | 0.00 | 0.00 | 0.00 | 49 | 1013.1 | |
| 20260830220117 | 25 | 0.0 | 0.0 | 0.00 | 0.00 | 0.00 | 48 | 1013.1 | |
| 20260830215116 | 25 | 0.0 | 0.0 | 0.00 | 0.00 | 0.00 | 49 | 1013.2 | |
| 20260830214116 | 25 | 0.0 | 0.0 | 0.00 | 0.00 | 0.00 | 49 | 1013.3 | |
| 20260830213117 | 25 | 0.0 | 0.0 | 0.00 | 0.00 | 0.00 | 50 | 1013.5 | |
| 20260830212116 | 25 | 0.0 | 0.0 | 0.00 | 0.00 | 0.00 | 50 | 1013.6 | |
| 20260830211116 | 25 | 0.0 | 0.0 | 0.00 | 0.00 | 0.00 | 50 | 1013.7 | |
| 20260830210116 | 25 | 0.0 | 0.0 | 0.00 | 0.00 | 0.00 | 50 | 1013.8 | |
| 20260830205136 | 25 | 0.0 | 0.0 | 0.00 | 0.00 | 0.00 | 50 | 1013.9 | |
| 20260830204116 | 24 | 0.0 | 0.0 | 0.00 | 0.00 | 0.00 | 51 | 1014.1 | |
| 20260830203118 | 24 | 0.0 | 0.0 | 0.00 | 0.00 | 0.00 | 52 | 1014.1 | |
| 20260830202117 | 23 | 0.0 | 0.0 | 0.00 | 0.00 | 0.00 | 53 | 1014.2 | |
| 20260830201116 | 23 | 0.0 | 0.0 | 0.00 | 0.00 | 0.00 | 54 | 1014.2 | |
| 20260830200116 | 23 | 0.0 | 0.0 | 0.00 | 0.00 | 0.00 | 56 | 1014.4 | |
| 20260830195118 | 23 | 0.0 | 0.0 | 0.00 | 0.00 | 0.00 | 56 | 1014.6 | |
| 20260830194118 | 22 | 0.0 | 0.0 | 0.00 | 0.00 | 0.00 | 58 | 1014.6 | |
| 20260830193116 | 22 | 0.0 | 0.0 | 0.00 | 0.00 | 0.00 | 60 | 1014.7 | |
| 20260830192116 | 22 | 0.0 | 0.0 | 0.00 | 0.00 | 0.00 | 61 | 1014.8 | |
| 20260830191116 | 21 | 0.0 | 0.0 | 0.00 | 0.00 | 0.00 | 61 | 1014.9 | |
| 20260830185119 | 20 | 0.0 | 0.0 | 0.00 | 0.00 | 0.00 | 63 | 1015.2 | |
| 20260830184117 | 20 | 0.0 | 0.0 | 0.00 | 0.00 | 0.00 | 64 | 1015.3 | |
| 20260830183118 | 20 | 0.0 | 0.0 | 0.00 | 0.00 | 0.00 | 66 | 1015.5 | |
| 20260830182117 | 20 | 0.0 | 0.0 | 0.00 | 0.00 | 0.00 | 66 | 1015.4 | |
| 20260830181117 | 19 | 0.0 | 0.0 | 0.00 | 0.00 | 0.00 | 69 | 1015.4 | |
| 20260830180117 | 18 | 0.0 | 0.0 | 0.00 | 0.00 | 0.00 | 71 | 1015.4 | |
| 20260830175117 | 18 | 0.0 | 0.0 | 0.00 | 0.00 | 0.00 | 72 | 1015.4 | |
| 20260830174117 | 17 | 0.0 | 0.0 | 0.00 | 0.00 | 0.00 | 72 | 1015.5 | |
| 20260830173117 | 17 | 0.0 | 0.0 | 0.00 | 0.00 | 0.00 | 73 | 1015.6 | |
| 20260830172117 | 17 | 0.0 | 0.0 | 0.00 | 0.00 | 0.00 | 75 | 1015.7 | |
| 20260830171117 | 16 | 0.0 | 0.0 | 0.00 | 0.00 | 0.00 | 78 | 1015.6 | |
| 20260830170148 | 16 | 0.0 | 0.0 | 0.00 | 0.00 | 0.00 | 81 | 1015.7 | |
| 20260830165116 | 15 | 0.0 | 0.0 | 0.00 | 0.00 | 0.00 | 86 | 1015.7 | |
| 20260830164116 | 14 | 0.0 | 0.0 | 0.00 | 0.00 | 0.00 | 89 | 1015.8 | |
| 20260830163116 | 13 | 0.0 | 0.0 | 0.00 | 0.00 | 0.00 | 90 | 1015.7 | |
| 20260830162116 | 13 | 0.0 | 0.0 | 0.00 | 0.00 | 0.00 | 91 | 1015.8 | |
| 20260830161117 | 13 | 0.0 | 0.0 | 0.00 | 0.00 | 0.00 | 91 | 1015.7 | |
| 20260830160118 | 13 | 0.0 | 0.0 | 0.00 | 0.00 | 0.00 | 93 | 1015.8 | |
| 20260830155116 | 13 | 0.0 | 0.0 | 0.00 | 0.00 | 0.00 | 93 | 1015.9 | |
| 20260830154116 | 13 | 0.0 | 0.0 | 0.00 | 0.00 | 0.00 | 93 | 1016.0 | |
| 20260830153217 | 13 | 0.0 | 0.0 | 0.00 | 0.00 | 0.00 | 93 | 1016.0 | |
| 20260830152116 | 12 | 0.0 | 0.0 | 0.00 | 0.00 | 0.00 | 93 | 1015.9 | |
| 20260830151116 | 12 | 0.0 | 0.0 | 0.00 | 0.00 | 0.00 | 93 | 1015.9 | |
| 20260830150116 | 11 | 0.0 | 0.0 | 0.00 | 0.00 | 0.00 | 93 | 1015.9 | |
| 20260830145116 | 10 | 0.0 | 0.0 | 0.00 | 0.00 | 0.00 | 93 | 1015.9 | |
| 20260830144116 | 10 | 0.0 | 0.0 | 0.00 | 0.00 | 0.00 | 92 | 1015.9 | |
| 20260830143136 | 8 | 0.0 | 0.0 | 0.00 | 0.00 | 0.00 | 91 | 1015.9 | |
| 20260830142137 | 8 | 0.0 | 0.0 | 0.00 | 0.00 | 0.00 | 91 | 1015.7 | |
| 20260830141116 | 8 | 0.0 | 0.0 | 0.00 | 0.00 | 0.00 | 90 | 1015.6 | |
| 20260830140156 | 8 | 0.0 | 0.0 | 0.00 | 0.00 | 0.00 | 90 | 1015.4 | |
| 20260830135116 | 8 | 0.0 | 0.0 | 0.00 | 0.00 | 0.00 | 89 | 1015.4 | |
| 20260830134116 | 8 | 0.0 | 0.0 | 0.00 | 0.00 | 0.00 | 89 | 1015.2 | |
| 20260830133156 | 8 | 0.0 | 0.0 | 0.00 | 0.00 | 0.00 | 89 | 1015.2 | |
| 20260830132116 | 8 | 0.0 | 0.0 | 0.00 | 0.00 | 0.00 | 89 | 1015.1 | |
| 20260830131116 | 9 | 0.0 | 0.0 | 0.00 | 0.00 | 0.00 | 89 | 1015.1 | |
| 20260830125116 | 9 | 0.0 | 0.0 | 0.00 | 0.00 | 0.00 | 89 | 1015.0 | |
| 20260830124116 | 8 | 0.0 | 0.0 | 0.00 | 0.00 | 0.00 | 89 | 1015.0 | |
| 20260830123116 | 8 | 0.0 | 0.0 | 0.00 | 0.00 | 0.00 | 88 | 1014.8 | |
| 20260830122116 | 9 | 0.0 | 0.0 | 0.00 | 0.00 | 0.00 | 88 | 1014.9 | |
| 20260830121116 | 9 | 0.0 | 0.0 | 0.00 | 0.00 | 0.00 | 88 | 1015.0 | |
| 20260830120116 | 9 | 0.0 | 0.0 | 0.00 | 0.00 | 0.00 | 89 | 1015.0 | |
| 20260830115116 | 9 | 0.0 | 0.0 | 0.00 | 0.00 | 0.00 | 88 | 1015.0 | |
| 20260830114116 | 9 | 0.0 | 0.0 | 0.00 | 0.00 | 0.00 | 87 | 1015.0 | |
| 20260830113116 | 9 | 0.0 | 0.0 | 0.00 | 0.00 | 0.00 | 87 | 1014.9 | |
| 20260830112136 | 9 | 0.0 | 0.0 | 0.00 | 0.00 | 0.00 | 87 | 1014.9 | |
| 20260830111116 | 10 | 0.0 | 0.0 | 0.00 | 0.00 | 0.00 | 87 | 1014.9 | |
| 20260830110138 | 10 | 0.0 | 0.0 | 0.00 | 0.00 | 0.00 | 87 | 1014.9 | |
| 20260830105116 | 10 | 0.0 | 0.0 | 0.00 | 0.00 | 0.00 | 87 | 1014.8 | |
| 20260830104116 | 10 | 0.0 | 0.0 | 0.00 | 0.00 | 0.00 | 87 | 1014.8 | |
| 20260830103136 | 11 | 0.0 | 0.0 | 0.00 | 0.00 | 0.00 | 87 | 1014.9 | |
| 20260830102116 | 11 | 0.0 | 0.0 | 0.00 | 0.00 | 0.00 | 87 | 1014.8 | |
| 20260830101116 | 11 | 0.0 | 0.0 | 0.00 | 0.00 | 0.00 | 87 | 1014.8 | |
| 20260830100116 | 11 | 0.0 | 0.0 | 0.00 | 0.00 | 0.00 | 88 | 1014.7 | |
| 20260830095116 | 11 | 0.0 | 0.0 | 0.00 | 0.00 | 0.00 | 87 | 1014.7 | |
| 20260830094116 | 11 | 0.0 | 0.0 | 0.00 | 0.00 | 0.00 | 87 | 1014.7 | |
| 20260830093136 | 11 | 0.0 | 0.0 | 0.00 | 0.00 | 0.00 | 88 | 1014.7 | |
| 20260830092116 | 11 | 0.0 | 0.0 | 0.00 | 0.00 | 0.00 | 87 | 1014.7 | |
| 20260830091122 | 11 | 0.0 | 0.0 | 0.00 | 0.00 | 0.00 | 86 | 1014.7 | |
| 20260830090116 | 11 | 0.0 | 0.0 | 0.00 | 0.00 | 0.00 | 86 | 1014.9 | |
| 20260830085116 | 11 | 0.0 | 0.0 | 0.00 | 0.00 | 0.00 | 86 | 1014.8 | |
| 20260830084116 | 11 | 0.0 | 0.0 | 0.00 | 0.00 | 0.00 | 85 | 1014.8 | |
| 20260830083116 | 11 | 0.0 | 0.0 | 0.00 | 0.00 | 0.00 | 85 | 1014.8 | |
| 20260830082136 | 11 | 0.0 | 0.0 | 0.00 | 0.00 | 0.00 | 84 | 1014.8 | |
| 20260830081156 | 11 | 0.0 | 0.0 | 0.00 | 0.00 | 0.00 | 84 | 1015.0 | |
| 20260830080116 | 12 | 0.0 | 0.0 | 0.00 | 0.00 | 0.00 | 83 | 1015.0 | |
| 20260830075116 | 12 | 0.0 | 0.0 | 0.00 | 0.00 | 0.00 | 83 | 1015.0 | |
| 20260830074116 | 12 | 0.0 | 0.0 | 0.00 | 0.00 | 0.00 | 83 | 1015.1 | |
| 20260830073138 | 12 | 0.0 | 0.0 | 0.00 | 0.00 | 0.00 | 83 | 1015.0 | |
| 20260830072116 | 12 | 0.0 | 0.0 | 0.00 | 0.00 | 0.00 | 83 | 1015.0 | |
| 20260830071138 | 12 | 0.0 | 0.0 | 0.00 | 0.00 | 0.00 | 82 | 1015.0 | |
| 20260830065115 | 13 | 0.0 | 0.0 | 0.00 | 0.00 | 0.00 | 83 | 1014.9 | |
| 20260830064116 | 13 | 0.0 | 0.0 | 0.00 | 0.00 | 0.00 | 83 | 1014.9 | |
| 20260830063135 | 13 | 0.0 | 0.0 | 0.00 | 0.00 | 0.00 | 83 | 1014.9 | |
| 20260830062115 | 13 | 0.0 | 0.0 | 0.00 | 0.00 | 0.00 | 81 | 1014.9 | |
| 20260830061115 | 13 | 0.0 | 0.0 | 0.00 | 0.00 | 0.00 | 81 | 1014.9 | |
| 20260830060116 | 13 | 0.0 | 0.0 | 0.00 | 0.00 | 0.00 | 80 | 1015.0 | |
| 20260830055117 | 14 | 0.0 | 0.0 | 0.00 | 0.00 | 0.00 | 80 | 1014.9 | |
| 20260830054115 | 14 | 0.0 | 0.0 | 0.00 | 0.00 | 0.00 | 79 | 1014.9 | |
| 20260830053116 | 14 | 0.0 | 0.0 | 0.00 | 0.00 | 0.00 | 78 | 1014.8 | |
| 20260830052116 | 15 | 0.0 | 0.0 | 0.00 | 0.00 | 0.00 | 78 | 1014.8 | |
| 20260830051116 | 15 | 0.0 | 0.0 | 0.00 | 0.00 | 0.00 | 78 | 1014.8 | |
| 20260830050116 | 15 | 0.0 | 0.0 | 0.00 | 0.00 | 0.00 | 78 | 1014.8 | |
| 20260830045117 | 15 | 0.0 | 0.0 | 0.00 | 0.00 | 0.00 | 78 | 1014.6 | |
| 20260830044137 | 15 | 0.0 | 0.0 | 0.00 | 0.00 | 0.00 | 77 | 1014.6 | |
| 20260830043118 | 15 | 0.0 | 0.0 | 0.00 | 0.00 | 0.00 | 76 | 1014.6 | |
| 20260830042118 | 16 | 0.0 | 0.0 | 0.00 | 0.00 | 0.00 | 76 | 1014.6 | |
| 20260830041118 | 16 | 0.0 | 0.0 | 0.00 | 0.00 | 0.00 | 75 | 1014.5 | |
| 20260830040137 | 16 | 0.0 | 0.0 | 0.00 | 0.00 | 0.00 | 74 | 1014.3 | |
| 20260830035137 | 16 | 0.0 | 0.0 | 0.00 | 0.00 | 0.00 | 74 | 1014.2 | |
| 20260830034137 | 17 | 0.0 | 0.0 | 0.00 | 0.00 | 0.00 | 72 | 1014.1 | |
| 20260830033117 | 17 | 0.0 | 0.0 | 0.00 | 0.00 | 0.00 | 71 | 1013.8 | |
| 20260830032118 | 17 | 0.0 | 0.0 | 0.00 | 0.00 | 0.00 | 69 | 1013.6 | |
| 20260830031138 | 18 | 0.0 | 0.0 | 0.00 | 0.00 | 0.00 | 68 | 1013.6 | |
| 20260830030118 | 18 | 0.0 | 0.0 | 0.00 | 0.00 | 0.00 | 66 | 1013.6 | |
| 20260830025118 | 19 | 0.0 | 0.0 | 0.00 | 0.00 | 0.00 | 64 | 1013.5 | |
| 20260830024117 | 20 | 0.0 | 0.0 | 0.00 | 0.00 | 0.00 | 62 | 1013.5 | |
| 20260830023118 | 21 | 0.0 | 0.0 | 0.00 | 0.00 | 0.00 | 59 | 1013.4 | |
| 20260830022117 | 22 | 0.0 | 0.0 | 0.00 | 0.00 | 0.00 | 57 | 1013.4 | |
| 20260830021137 | 22 | 0.0 | 0.0 | 0.00 | 0.00 | 0.00 | 55 | 1013.3 | |
| 20260830020117 | 23 | 0.0 | 0.0 | 0.00 | 0.00 | 0.00 | 54 | 1013.3 | |
| 20260830015138 | 23 | 0.0 | 0.0 | 0.00 | 0.00 | 0.00 | 54 | 1013.3 |